Location: D�derode
(51.8092°N, 10.1065°E)
Time: 04:58:28
(UTC+00:00)

Landsat 5 - Pass Details

Date: 01 December 2020
Orbit: 528 x 654 km, 98.2° (Epoch: 23 January)

Event Time Altitude Azimuth Distance (km) Brightness Sun altitude
Exits shadow 16:52:33 - 11° (N) 2,781 6.6 -14.7°
Reaches altitude 10° 16:54:23 10° 8° (N) 2,038 6.0 -14.9°
Maximum altitude 16:58:46 60° 290° (WNW) 747 4.2 -15.6°
Drops below altitude 10° 17:03:12 10° 211° (SSW) 2,059 6.9 -16.2°
Sets 17:05:26 0° 207° (SSW) 2,968 7.7 -16.6°
